Location: Mount Hamilton
(37.3433°N, 121.6347°W)
Time: 07:35:21
(UTC-08:00)

Tiangong 2 - Visible Passes

Search period start: 21 November 2017 00:00
Search period end: 01 December 2017 00:00
Orbit: 386 x 392 km, 42.8° (Epoch: 21 November)

Date Brightness Start Highest point End Pass type
(mag) Time Alt. Az. Time Alt. Az. Time Alt. Az.
25 Nov 3.8 05:46:48 10° SSW 05:49:11 19° SE 05:51:34 10° E visible
26 Nov 4.3 04:50:31 10° SSE 04:51:11 10° SE 04:51:52 10° SE visible
26 Nov 1.4 06:24:24 10° WSW 06:27:35 69° SSE 06:30:46 10° ENE visible
27 Nov 2.4 05:27:37 19° SSW 05:29:26 37° SSE 05:32:26 10° E visible
28 Nov 4.2 04:32:52 15° ESE 04:32:52 15° ESE 04:33:49 10° E visible
28 Nov 1.1 06:05:13 13° WSW 06:07:58 66° NNW 06:11:08 10° ENE visible
29 Nov 1.6 05:10:14 57° E 05:10:14 57° E 05:12:55 10° ENE visible
30 Nov 1.6 05:47:23 31° WNW 05:48:23 42° NNW 05:51:27 10° ENE visible
